Regional Weather Roundup
Issued by NWS Charleston, WV

Home | Current Version | Previous Version | Text Only | Print | Product List | Glossary On
Versions: 1 2 3 4 5 6 7 8 9 10 11 12 13 14 15 16 17 18 19 20 21 22 23 24 25 26 27
000
ASUS41 KRLX 232010
RWRRLX
West Virginia Regional Weather Roundup
National Weather Service Charleston WV
400 PM EDT WED APR 23 2014

Note: "fair" indicates few or no clouds below 12,000 feet with no
significant weather and/or obstructions to visibility.

WVZ003-232100-
Northern Panhandle of West Virginia

CITY           SKY/WX    TMP DP  RH WIND       PRES   REMARKS
WHEELING       CLOUDY    46  33  60 W10       30.03S
$$

WVZ009-232100-
Northwest West Virginia

CITY           SKY/WX    TMP DP  RH WIND       PRES   REMARKS
PARKERSBURG    MOSUNNY   57  33  40 NW13      30.06S
$$

WVZ006-232100-
Western West Virginia

CITY           SKY/WX    TMP DP  RH WIND       PRES   REMARKS
HUNTINGTON     SUNNY     60  31  33 N10       30.03S
$$

WVZ015-232100-
West Central West Virginia

CITY           SKY/WX    TMP DP  RH WIND       PRES   REMARKS
CHARLESTON     MOSUNNY   61  31  32 W8G18     30.01S
$$

WVZ031-232100-
North Central West Virginia

CITY           SKY/WX    TMP DP  RH WIND       PRES   REMARKS
CLARKSBURG     PTSUNNY   51  32  48 NW14      30.00S
MORGANTOWN     CLOUDY    53  32  44 N8        30.00R
$$

WVZ035-042-045-232100-
South Central West Virginia

CITY           SKY/WX    TMP DP  RH WIND       PRES   REMARKS
BECKLEY        SUNNY     56  28  34 N10G23    29.98R
BLUEFIELD      SUNNY     60  22  23 N14G21    29.97S
LEWISBURG      SUNNY     56  26  31 N10       29.95R
$$

WVZ047-232100-
Northern Mountains of West Virginia

CITY           SKY/WX    TMP DP  RH WIND       PRES   REMARKS
ELKINS         CLOUDY    50  31  48 NW13      29.98S
$$

WVZ052-232100-
Eastern Panhandle of West Virginia

CITY           SKY/WX    TMP DP  RH WIND       PRES   REMARKS
MARTINSBURG    PTSUNNY   54  32  43 NW24G32   29.90R
PETERSBURG     MOSUNNY   60  39  45 NW16G25   29.94S
$$



USA.gov is the U.S. government's official web portal to all federal, state and local government web resources and services.